Location: Newark
(45.5000°N, 11.4167°E)
Time: 01:33:20
(UTC+00:00)

Vanguard 3 - Pass Details

Date: 23 August 2019
Orbit: 508 x 3262 km, 33.3° (Epoch: 23 October)

Event Time Altitude Azimuth Distance (km) Brightness Sun altitude
Rises 17:29:24 0° 244° (WSW) 4,156 11.8 5.9°
Reaches altitude 10° 17:33:26 10° 231° (SW) 2,721 10.5 5.2°
Maximum altitude 17:37:53 21° 184° (S) 1,635 8.7 4.5°
Drops below altitude 10° 17:41:13 10° 134° (SE) 1,969 8.7 3.9°
Sets 17:43:37 0° 116° (ESE) 2,716 9.2 3.5°
